Location: Los Ranchitos
(37.9930°N, 122.5425°W)
Time: 03:01:29
(UTC+00:00)

Cosmos 1842 - Pass Details

Date: 21 September 2020
Orbit: 521 x 536 km, 82.5° (Epoch: 27 October)

Event Time Altitude Azimuth Distance (km) Brightness Sun altitude
Rises 02:38:27 0° 355° (N) 2,657 7.0 -6.6°
Reaches altitude 10° 02:40:36 10° 358° (N) 1,765 6.0 -7.0°
Maximum altitude 02:44:28 70° 82° (E) 561 3.2 -7.8°
Drops below altitude 10° 02:48:18 10° 166° (SSE) 1,756 5.7 -8.5°
Sets 02:50:26 0° 169° (S) 2,642 6.6 -8.9°
